Rochelle, IL

10:55 PM CDT on April 28, 2017 (GMT -0500)
Rochelle

Weather History for KRPJ - March, 2013

Change the Weather History Date:

Wednesday, March 6, 2013

  Actual Average (KRFD) Record (KRFD)
Temperature  
Mean Temperature 28 °F -  
Max Temperature 31 °F 39 °F 70 °F (1983)
Min Temperature 25 °F 21 °F -7 °F (1960)
Degree Days  
Heating Degree Days 37    
Moisture  
Dew Point 24 °F    
Average Humidity 83    
Maximum Humidity 88    
Minimum Humidity 76    
Precipitation  
Precipitation 0.06 in - - ()
Sea Level Pressure  
Sea Level Pressure 30.24 in    
Wind  
Wind Speed 14 mph (NW)    
Max Wind Speed 20 mph    
Max Gust Speed 28 mph    
Visibility 10 miles    
Events      
Averages and records for this station are not official NWS values.
T = Trace of Precipitation, MM = Missing Value Source: NWS Daily Summary

Daily Weather History Graph

Daily Weather History Graph

Search for Another Location

Airport or City:

Trip Planner

Search our weather history database for the weather conditions in past years. The results will help you decide how hot, cold, wet, or windy it might be!

Date:

Astronomy

Mar. 06, 2013 Rise Set
Actual Time 6:22 AM CST 5:52 PM CST
Civil Twilight 5:54 AM CST 6:20 PM CST
Nautical Twilight 5:22 AM CST 6:52 PM CST
Astronomical Twilight 4:50 AM CST 7:25 PM CST
Moon 2:35 AM CST (3/6) 12:30 PM CST (3/6)
Length of Visible Light 12h 25m
Length of Day
11h 30m
Waning Crescent, 29% of the Moon is Illuminated
Mar 6
Waning Crescent
Mar 11
New
Mar 19
First Quarter
Mar 27
Full
Apr 2
Last Quarter

Hourly Weather History & Observations

Time (CST) Temp. Windchill Dew Point Humidity Pressure Visibility Wind Dir Wind Speed Gust Speed Precip Events Conditions
12:15 AM 26.1 °F 12.7 °F 23.0 °F 88% 30.05 in 10.0 mi NNW 18.4 mph - N/A   Overcast
12:35 AM 25.7 °F 12.7 °F 22.6 °F 88% 30.07 in 10.0 mi NNW 17.3 mph - N/A   Overcast
12:55 AM 26.2 °F 13.0 °F 22.8 °F 87% 30.08 in 10.0 mi NNW 18.4 mph 27.6 mph N/A   Overcast
1:15 AM 26.2 °F 12.6 °F 22.8 °F 87% 30.09 in 10.0 mi NNW 19.6 mph 25.3 mph N/A   Overcast
1:35 AM 26.2 °F 13.0 °F 23.0 °F 88% 30.09 in 10.0 mi NNW 18.4 mph 24.2 mph N/A   Overcast
1:55 AM 26.2 °F 13.8 °F 23.0 °F 88% 30.10 in 10.0 mi NNW 16.1 mph 20.7 mph N/A   Overcast
2:15 AM 26.4 °F 13.6 °F 23.0 °F 87% 30.10 in 10.0 mi NNW 17.3 mph 23.0 mph N/A   Overcast
2:35 AM 26.6 °F 15.2 °F 23.0 °F 86% 30.11 in 10.0 mi NNW 13.8 mph - N/A   Overcast
2:55 AM 26.6 °F 14.7 °F 23.4 °F 88% 30.12 in 10.0 mi North 15.0 mph - N/A   Overcast
3:15 AM 26.8 °F 14.5 °F 23.4 °F 87% 30.12 in 10.0 mi North 16.1 mph - N/A   Overcast
3:35 AM 26.6 °F 14.7 °F 23.4 °F 88% 30.12 in 10.0 mi North 15.0 mph - N/A   Overcast
3:55 AM 26.8 °F 14.5 °F 23.4 °F 87% 30.14 in 10.0 mi NNW 16.1 mph - N/A   Overcast
4:15 AM 27.1 °F 16.4 °F 23.0 °F 84% 30.15 in 10.0 mi NNW 12.7 mph - N/A   Overcast
4:55 AM 26.4 °F 16.0 °F 23.0 °F 87% 30.16 in 10.0 mi NNW 11.5 mph - N/A   Overcast
5:15 AM 26.1 °F 15.0 °F 22.6 °F 87% 30.17 in 10.0 mi NNW 12.7 mph - N/A   Overcast
5:35 AM 25.7 °F 15.7 °F 22.6 °F 88% 30.18 in 10.0 mi NW 10.4 mph - N/A   Overcast
5:55 AM 25.3 °F 14.1 °F 22.1 °F 87% 30.19 in 10.0 mi NW 12.7 mph - N/A   Overcast
6:15 AM 25.2 °F 13.9 °F 21.9 °F 87% 30.19 in 10.0 mi NNW 12.7 mph - N/A   Overcast
6:35 AM 25.2 °F 12.9 °F 21.9 °F 87% 30.20 in 10.0 mi NW 15.0 mph - N/A   Overcast
6:55 AM 25.0 °F 13.1 °F 21.7 °F 87% 30.21 in 10.0 mi NW 13.8 mph - N/A   Overcast
7:15 AM 25.2 °F 12.4 °F 21.9 °F 87% 30.23 in 5.0 mi NNW 16.1 mph 23.0 mph N/A   Overcast
7:35 AM 25.2 °F 12.9 °F 22.1 °F 88% 30.24 in 7.0 mi NNW 15.0 mph - N/A   Overcast
8:15 AM 26.2 °F 15.8 °F 22.8 °F 87% 30.24 in 10.0 mi NNW 11.5 mph - N/A   Overcast
8:35 AM 26.6 °F 15.2 °F 23.0 °F 86% 30.24 in 10.0 mi NNW 13.8 mph - N/A   Overcast
8:55 AM 27.3 °F 17.1 °F 23.4 °F 85% 30.25 in 10.0 mi NNW 11.5 mph - N/A   Overcast
9:15 AM 27.5 °F 16.8 °F 23.4 °F 84% 30.26 in 10.0 mi NNW 12.7 mph - N/A   Overcast
9:35 AM 28.0 °F 16.5 °F 23.4 °F 83% 30.26 in 10.0 mi NW 15.0 mph - N/A   Overcast
9:55 AM 28.4 °F 17.0 °F 23.7 °F 83% 30.27 in 10.0 mi NW 15.0 mph 19.6 mph N/A   Overcast
10:15 AM 28.4 °F 17.0 °F 23.7 °F 83% 30.27 in 10.0 mi NW 15.0 mph - N/A   Overcast
10:55 AM 29.1 °F 18.4 °F 23.9 °F 81% 30.27 in 10.0 mi NW 13.8 mph 19.6 mph N/A   Overcast
11:15 AM 29.3 °F 18.2 °F 23.9 °F 80% 30.27 in 10.0 mi NW 15.0 mph - N/A   Overcast
11:35 AM 29.8 °F 19.8 °F 24.1 °F 79% 30.27 in 10.0 mi NW 12.7 mph - N/A   Overcast
11:55 AM 29.8 °F 19.3 °F 23.9 °F 79% 30.27 in 10.0 mi NW 13.8 mph - N/A   Overcast
12:15 PM 30.2 °F 19.3 °F 24.3 °F 79% 30.27 in 10.0 mi NW 15.0 mph - N/A   Overcast
12:55 PM 30.2 °F 20.8 °F 24.3 °F 79% 30.26 in 10.0 mi NW 11.5 mph - 0.02 in   Overcast
1:15 PM 30.2 °F 20.2 °F 24.1 °F 78% 30.27 in 10.0 mi NW 12.7 mph - N/A   Overcast
1:35 PM 30.6 °F 20.2 °F 23.9 °F 76% 30.26 in 10.0 mi NW 13.8 mph - N/A   Overcast
1:55 PM 30.4 °F 19.1 °F 24.1 °F 77% 30.26 in 10.0 mi NW 16.1 mph - 0.02 in   Overcast
2:15 PM 30.7 °F 20.9 °F 24.1 °F 76% 30.26 in 10.0 mi NNW 12.7 mph - N/A   Overcast
2:35 PM 30.9 °F 21.2 °F 24.4 °F 77% 30.26 in 10.0 mi NW 12.7 mph - N/A   Overcast
2:55 PM 31.3 °F 22.1 °F 24.8 °F 77% 30.27 in 10.0 mi NW 11.5 mph - N/A   Overcast
3:15 PM 31.5 °F 22.3 °F 24.8 °F 76% 30.27 in 10.0 mi NW 11.5 mph - 0.01 in   Overcast
3:35 PM 31.6 °F 23.1 °F 25.2 °F 77% 30.28 in 10.0 mi WNW 10.4 mph 16.1 mph 0.02 in   Overcast
3:55 PM 31.5 °F 22.9 °F 24.8 °F 76% 30.29 in 10.0 mi NW 10.4 mph - 0.02 in   Overcast
4:15 PM 31.3 °F 22.7 °F 24.6 °F 76% 30.29 in 10.0 mi NW 10.4 mph - N/A   Overcast
4:35 PM 30.9 °F 22.2 °F 25.0 °F 79% - 10.0 mi WNW 10.4 mph - N/A   Overcast
4:55 PM 30.4 °F 22.2 °F 25.0 °F 80% 30.29 in 10.0 mi WNW 9.2 mph - N/A   Overcast
5:15 PM 29.8 °F 20.9 °F 25.0 °F 82% 30.29 in 10.0 mi WNW 10.4 mph - N/A   Overcast
5:35 PM 29.7 °F 21.3 °F 24.6 °F 81% 30.29 in 10.0 mi WNW 9.2 mph - N/A   Overcast
5:55 PM 28.9 °F 21.1 °F 24.8 °F 84% 30.30 in 10.0 mi WNW 8.1 mph - N/A   Overcast
6:15 PM 28.4 °F 19.1 °F 24.6 °F 86% 30.30 in 10.0 mi WNW 10.4 mph - N/A   Overcast
6:35 PM 28.6 °F 19.3 °F 24.4 °F 84% 30.30 in 10.0 mi WNW 10.4 mph - N/A   Overcast
6:55 PM 28.4 °F 19.7 °F 23.9 °F 83% 30.30 in 10.0 mi NW 9.2 mph - N/A   Overcast
7:15 PM 28.4 °F 19.1 °F 23.9 °F 83% 30.31 in 10.0 mi WNW 10.4 mph - N/A   Overcast
7:35 PM 28.4 °F 19.1 °F 23.7 °F 83% 30.31 in 10.0 mi WNW 10.4 mph - N/A   Overcast
7:55 PM 28.2 °F 20.2 °F 23.7 °F 83% 30.31 in 10.0 mi WNW 8.1 mph - N/A   Overcast
8:15 PM 28.4 °F 20.4 °F 23.5 °F 82% 30.31 in 10.0 mi WNW 8.1 mph - N/A   Overcast
8:35 PM 28.2 °F 21.0 °F 23.5 °F 83% 30.31 in 10.0 mi WNW 6.9 mph - N/A   Overcast
8:55 PM 27.9 °F 22.6 °F 23.5 °F 84% 30.31 in 10.0 mi West 4.6 mph - N/A   Overcast
9:15 PM 27.1 °F 21.8 °F 23.9 °F 88% 30.31 in 10.0 mi West 4.6 mph - N/A   Overcast
9:35 PM 27.5 °F 20.2 °F 23.4 °F 84% 30.31 in 10.0 mi WNW 6.9 mph - N/A   Overcast
9:55 PM 27.5 °F 20.2 °F 23.4 °F 84% 30.31 in 10.0 mi WNW 6.9 mph - N/A   Overcast
10:15 PM 27.5 °F 20.2 °F 23.4 °F 84% 30.31 in 10.0 mi WNW 6.9 mph - N/A   Overcast
10:35 PM 27.3 °F 22.0 °F 23.2 °F 84% 30.31 in 10.0 mi NW 4.6 mph - N/A   Overcast
10:55 PM 27.1 °F 23.2 °F 23.0 °F 84% 30.31 in 10.0 mi NW 3.5 mph - N/A   Overcast
11:15 PM 26.6 °F - 23.0 °F 86% 30.31 in 10.0 mi Calm Calm - N/A   Overcast
11:35 PM 26.4 °F 22.4 °F 23.0 °F 87% 30.31 in 10.0 mi West 3.5 mph - N/A   Overcast
11:55 PM 26.4 °F 18.9 °F 23.0 °F 87% 30.31 in 10.0 mi WNW 6.9 mph - N/A   Overcast